[[{"header":{"parameterUnit":"m.s-1","parameterCategory":1,"la1":30.2991,"la2":30.254,"lo1":-89.0895,"lo2":-89.0444,"dy":0.0017,"dx":0.0017,"nx":28,"ny":28,"refTime":"2025-08-24T09:00:00:Z","depth":0,"parameterNumber":2,"parameterNumberName":"U-component_of_WINDS"},"data":[0,0,0,0,0,0,0,0,0,0,0,0,0,0,0,0,0,0,0,0,0,0,0,0,0,0,0,0,0,0,0,0,0,0,0,0,0,0,0,0,0,0,0,0,0,0,0,0,0,0,0,0,0,0,0,0,0,0,-0.2103,-0.2103,0,-0.2045,-0.2045,-0.2044,-0.1996,-0.1995,-0.1995,-0.1994,-0.1934,-0.1933,-0.1932,0,0,0,0,0,0,0,0,0,0,0,0,0,-0.2172,-0.2171,-0.2104,-0.2103,-0.2102,-0.2045,-0.2045,-0.2044,-0.1996,-0.1995,-0.1994,-0.1994,-0.1934,-0.1933,-0.1932,0,0,0,0,0,0,0,0,0,0,0,0,0,-0.2131,-0.2171,-0.2104,-0.2071,-0.2068,-0.2046,-0.2045,-0.2044,-0.1996,-0.1995,-0.1994,-0.1994,-0.1935,-0.1933,-0.1932,-0.1937,0,0,-0.1927,-0.1926,0,0,0,0,0,0,0,0,-0.2133,-0.2128,-0.2077,-0.2073,-0.2069,-0.2027,-0.2047,-0.2008,-0.1996,-0.2023,-0.1994,-0.1993,-0.1966,-0.1961,-0.1952,-0.1934,-0.1931,-0.1926,-0.1925,-0.1925,-0.1924,0,0,0,0,0,0,0,-0.2136,-0.2131,-0.208,-0.2076,-0.2072,-0.2059,-0.2053,-0.2039,-0.1999,-0.2021,-0.2017,-0.2011,-0.1963,-0.1954,-0.195,-0.193,-0.1926,-0.1925,-0.1924,-0.1923,-0.1913,-0.1913,0,0,0,0,0,0,-0.2144,-0.2133,-0.2082,-0.2079,-0.21,-0.2059,-0.2051,-0.2041,-0.1999,-0.1992,-0.2012,-0.2009,-0.1957,-0.1952,-0.1948,-0.1951,-0.1925,-0.1923,-0.1922,-0.1912,-0.1913,-0.1913,0,0,0,0,0,0,-0.2146,-0.214,-0.2085,-0.2105,-0.2097,-0.2058,-0.2048,-0.2041,-0.2031,-0.1992,-0.1985,-0.2009,-0.1956,-0.195,-0.194,-0.1948,-0.1922,-0.1921,-0.1911,-0.1912,-0.1913,-0.1956,0,0,0,0,0,0,-0.2148,-0.2141,-0.2143,-0.2105,-0.2096,-0.2078,-0.2048,-0.204,-0.2028,-0.2024,-0.1988,-0.1982,-0.1955,-0.1942,-0.1938,-0.1945,-0.1919,-0.191,-0.1911,-0.1913,-0.1954,-0.1959,-0.1963,0,0,0,0,0,-0.2151,-0.2157,-0.2143,-0.2137,-0.2098,-0.2078,-0.2073,-0.2043,-0.2029,-0.203,-0.2005,-0.1983,-0.1948,-0.1942,-0.1936,-0.1943,-0.1909,-0.1911,-0.1913,-0.1952,-0.1958,-0.1963,0,0,0,0,0,0,-0.2197,-0.2152,-0.2136,-0.2131,-0.2109,-0.207,-0.2071,-0.205,-0.2031,-0.2028,-0.1991,-0.1983,-0.1977,-0.1959,-0.1953,-0.1945,-0.1926,-0.1926,-0.1957,-0.1962,-0.1967,-0.1971,-0.1918,0,0,0,0,0,-0.2206,-0.2195,-0.2156,-0.2155,-0.2145,-0.211,-0.21,-0.2079,-0.2055,-0.2045,-0.2019,-0.1997,-0.198,-0.197,-0.1953,-0.1951,-0.1942,-0.1953,-0.1957,-0.1961,-0.1962,-0.1959,-0.1963,-0.1919,-0.1919,-0.1919,0,0,-0.2226,-0.22,-0.2195,-0.2164,-0.2144,-0.2132,-0.2102,-0.2092,-0.2082,-0.2043,-0.2031,-0.2012,-0.1984,-0.1977,-0.1973,-0.1962,-0.1972,-0.1963,-0.1967,-0.1965,-0.1961,-0.1965,-0.1969,-0.192,-0.192,-0.192,0,0,-0.2256,-0.2235,-0.2232,-0.2213,-0.2184,-0.216,-0.2159,-0.2124,-0.2109,-0.2097,-0.2067,-0.2056,-0.2029,-0.201,-0.1997,-0.2019,-0.1997,-0.2014,-0.2037,-0.2034,-0.2038,-0.2041,-0.2048,-0.2051,-0.2015,-0.2015,-0.2015,0,-0.2284,-0.2265,-0.2233,-0.2223,-0.221,-0.2174,-0.2171,-0.2154,-0.212,-0.2112,-0.21,-0.2065,-0.2044,-0.2032,-0.2037,-0.2028,-0.2025,-0.2018,-0.204,-0.2042,-0.2045,-0.2051,-0.2054,-0.2018,-0.2017,-0.2017,-0.2017,0,-0.2301,-0.2288,-0.2289,-0.2258,-0.2245,-0.2238,-0.2205,-0.2195,-0.2175,-0.2153,-0.214,-0.2113,-0.209,-0.2085,-0.2065,-0.207,-0.2064,-0.2047,-0.2026,-0.2052,-0.2057,-0.2059,-0.2021,-0.202,-0.2019,-0.2019,0,0,-0.2358,-0.2308,-0.2309,-0.2294,-0.2259,-0.2249,-0.224,-0.2217,-0.221,-0.2188,-0.218,-0.2157,-0.2141,-0.2126,-0.2103,-0.2101,-0.2119,-0.2083,-0.2082,-0.2091,-0.2122,-0.2135,-0.2139,-0.2105,-0.2105,-0.2105,-0.2124,0,-0.2381,-0.2364,-0.2335,-0.2327,-0.2315,-0.2281,-0.2273,-0.2251,-0.2229,-0.2216,-0.2192,-0.2177,-0.2156,-0.2147,-0.2143,-0.2118,-0.2125,-0.2116,-0.2096,-0.2096,-0.2104,-0.2142,-0.2156,-0.2175,-0.2126,-0.2127,-0.2127,0,-0.2407,-0.2387,-0.2378,-0.2343,-0.2337,-0.2331,-0.2307,-0.2294,-0.2268,-0.2252,-0.2236,-0.2211,-0.22,-0.2181,-0.2165,-0.216,-0.215,-0.2136,-0.2136,-0.2133,-0.2113,-0.2139,-0.2181,-0.2183,-0.213,-0.213,-0.213,0,-0.2449,-0.242,-0.241,-0.2399,-0.2358,-0.2354,-0.2337,-0.231,-0.2298,-0.2277,-0.2268,-0.2247,-0.2235,-0.2218,-0.2188,-0.2178,-0.2175,-0.2154,-0.2162,-0.2162,-0.2162,-0.2163,-0.2203,-0.2157,-0.2157,-0.2157,-0.2157,0,-0.2478,-0.2474,-0.2428,-0.2423,-0.2417,-0.2383,-0.2378,-0.2357,-0.2333,-0.2323,-0.2292,-0.2282,-0.2243,-0.2229,-0.2206,-0.2195,-0.219,-0.2177,-0.2171,-0.218,-0.2181,-0.2172,-0.217,-0.2158,-0.2157,-0.2157,-0.2157,0,-0.2523,-0.2493,-0.2481,-0.2443,-0.2433,-0.2431,-0.2398,-0.2391,-0.2368,-0.2355,-0.235,-0.2314,-0.2295,-0.2264,-0.2237,-0.2221,-0.2215,-0.2204,-0.2224,-0.222,-0.2229,-0.2228,-0.2264,-0.2267,-0.222,-0.2221,-0.2221,0,-0.2544,-0.254,-0.2502,-0.2492,-0.2476,-0.2462,-0.2449,-0.2415,-0.2403,-0.2372,-0.2369,-0.2348,-0.233,-0.2302,-0.2274,-0.2252,-0.2241,-0.2255,-0.2237,-0.2246,-0.224,-0.2241,-0.224,-0.2259,-0.2259,-0.226,-0.226,0,-0.2583,-0.2568,-0.2551,-0.2529,-0.2515,-0.2496,-0.2475,-0.2469,-0.243,-0.2418,-0.2399,-0.2385,-0.2357,-0.2337,-0.2312,-0.2293,-0.227,-0.2266,-0.2267,-0.2275,-0.2286,-0.228,-0.2234,-0.2265,-0.2265,-0.2265,-0.2264,-0.2264,-0.2616,-0.2611,-0.2583,-0.2565,-0.2546,-0.2527,-0.2518,-0.2494,-0.2477,-0.2452,-0.2433,-0.2415,-0.2388,-0.2352,-0.2335,-0.232,-0.2309,-0.231,-0.231,-0.2311,-0.2314,-0.2289,-0.2315,-0.2315,-0.2315,-0.2315,-0.2315,0,-0.2653,-0.2634,-0.2617,-0.2589,-0.2575,-0.2555,-0.253,-0.252,-0.2505,-0.2481,-0.2464,-0.2442,-0.2422,-0.2391,-0.2368,-0.2363,-0.2351,-0.2358,-0.2358,-0.2354,-0.2325,-0.2327,-0.2367,-0.2367,-0.2367,-0.2367,-0.2367,-0.2367,-0.2671,-0.266,-0.2642,-0.2621,-0.2601,-0.2584,-0.2572,-0.2554,-0.2535,-0.2512,-0.2495,-0.2475,-0.2449,-0.2424,-0.2404,-0.2396,-0.2389,-0.2398,-0.2387,-0.2361,-0.2356,-0.2351,-0.2352,-0.2397,-0.2397,-0.2416,-0.2416,-0.2416]},{"header":{"parameterUnit":"m.s-1","parameterCategory":1,"la1":30.2991,"la2":30.254,"lo1":-89.0895,"lo2":-89.0444,"dy":0.0017,"dx":0.0017,"nx":28,"ny":28,"refTime":"2025-08-24T09:00:00:Z","depth":0,"parameterNumber":3,"parameterNumberName":"V-component_of_WINDS"},"data":[0,0,0,0,0,0,0,0,0,0,0,0,0,0,0,0,0,0,0,0,0,0,0,0,0,0,0,0,0,0,0,0,0,0,0,0,0,0,0,0,0,0,0,0,0,0,0,0,0,0,0,0,0,0,0,0,0,0,-1.0374,-1.0374,0,-1.034,-1.034,-1.0339,-1.0354,-1.0355,-1.0356,-1.0357,-1.0319,-1.0317,-1.0315,0,0,0,0,0,0,0,0,0,0,0,0,0,-1.0453,-1.0451,-1.0374,-1.0374,-1.0374,-1.034,-1.034,-1.0339,-1.0354,-1.0355,-1.0356,-1.0357,-1.0319,-1.0317,-1.0315,0,0,0,0,0,0,0,0,0,0,0,0,0,-1.0418,-1.0451,-1.0375,-1.0377,-1.0377,-1.034,-1.034,-1.0339,-1.0354,-1.0355,-1.0357,-1.0358,-1.032,-1.0317,-1.0315,-1.0272,0,0,-1.0306,-1.0305,0,0,0,0,0,0,0,0,-1.042,-1.0416,-1.0377,-1.0377,-1.0377,-1.0353,-1.0353,-1.0316,-1.0354,-1.0363,-1.0357,-1.0358,-1.0329,-1.0325,-1.0316,-1.027,-1.0269,-1.0306,-1.0304,-1.0303,-1.0302,0,0,0,0,0,0,0,-1.0423,-1.0417,-1.0361,-1.0377,-1.0376,-1.038,-1.0376,-1.0346,-1.0339,-1.0362,-1.0363,-1.0359,-1.0329,-1.0319,-1.0315,-1.0268,-1.0306,-1.0304,-1.0302,-1.0301,-1.019,-1.0188,0,0,0,0,0,0,-1.0425,-1.0419,-1.0362,-1.036,-1.0402,-1.0377,-1.0374,-1.0359,-1.0339,-1.0337,-1.0358,-1.036,-1.0323,-1.0318,-1.0314,-1.0266,-1.0303,-1.0301,-1.0299,-1.0191,-1.0189,-1.0188,0,0,0,0,0,0,-1.0427,-1.042,-1.0363,-1.039,-1.0383,-1.0375,-1.0358,-1.0358,-1.0348,-1.0336,-1.0335,-1.0349,-1.0323,-1.0318,-1.0283,-1.0264,-1.0299,-1.0297,-1.0192,-1.019,-1.0189,-1.0167,0,0,0,0,0,0,-1.0429,-1.0421,-1.0404,-1.0389,-1.0381,-1.0333,-1.0357,-1.0356,-1.0343,-1.0345,-1.0327,-1.0325,-1.0324,-1.0287,-1.0281,-1.0261,-1.0295,-1.0194,-1.0191,-1.0189,-1.0169,-1.0165,-1.016,0,0,0,0,0,-1.0432,-1.0398,-1.0403,-1.0396,-1.0361,-1.0332,-1.0328,-1.0327,-1.0342,-1.0325,-1.0319,-1.0326,-1.0267,-1.0284,-1.0276,-1.0256,-1.0195,-1.0192,-1.0189,-1.0171,-1.0165,-1.016,0,0,0,0,0,0,-1.0409,-1.0396,-1.0402,-1.0362,-1.0349,-1.0335,-1.0314,-1.0321,-1.0302,-1.0304,-1.0304,-1.03,-1.0265,-1.0257,-1.0275,-1.0215,-1.0233,-1.0229,-1.0222,-1.0217,-1.0212,-1.0216,-1.0293,0,0,0,0,0,-1.04,-1.0378,-1.0368,-1.0334,-1.0327,-1.0322,-1.0309,-1.0311,-1.0296,-1.029,-1.028,-1.0265,-1.0244,-1.0229,-1.0209,-1.0168,-1.0166,-1.015,-1.0146,-1.0142,-1.0139,-1.012,-1.0114,-1.0178,-1.0178,-1.0178,0,0,-1.038,-1.037,-1.0356,-1.0329,-1.0319,-1.0297,-1.0317,-1.0291,-1.0276,-1.0286,-1.0254,-1.0246,-1.023,-1.0193,-1.0176,-1.0185,-1.012,-1.0139,-1.0136,-1.0134,-1.0116,-1.011,-1.0105,-1.0176,-1.0176,-1.0177,0,0,-1.0333,-1.0322,-1.0295,-1.0285,-1.0269,-1.0267,-1.026,-1.0246,-1.0242,-1.0211,-1.0219,-1.0199,-1.0161,-1.0151,-1.014,-1.0092,-1.0099,-1.0085,-1.0062,-1.0043,-1.0038,-1.0034,-1.0019,-1.0014,-1.0081,-1.0081,-1.0081,0,-1.0309,-1.0277,-1.0279,-1.0255,-1.0244,-1.0254,-1.0227,-1.0216,-1.0194,-1.0187,-1.0197,-1.0152,-1.0141,-1.0104,-1.0093,-1.0082,-1.0076,-1.0087,-1.0039,-1.0034,-1.003,-1.0016,-1.0011,-1.008,-1.008,-1.008,-1.008,0,-1.0251,-1.0229,-1.0208,-1.019,-1.0176,-1.015,-1.0148,-1.0134,-1.0137,-1.0134,-1.0103,-1.0091,-1.0069,-1.006,-1.0062,-1.0024,-1.003,-1.0039,-1.0058,-1.0023,-1.001,-1.0004,-1.0078,-1.0078,-1.0079,-1.0079,0,0,-1.0187,-1.0173,-1.0165,-1.0158,-1.0144,-1.0126,-1.0102,-1.0083,-1.0072,-1.0056,-1.0037,-1.0006,-1.0016,-1.0004,-1.0005,-0.9988,-0.9955,-1.0,-1.0,-0.9994,-0.9915,-0.9909,-0.9903,-0.9959,-0.9958,-0.9957,-0.9917,0,-1.0141,-1.0099,-1.0102,-1.0063,-1.0044,-1.0054,-1.0033,-1.0022,-1.0019,-1.0002,-0.9997,-0.9977,-0.999,-0.9984,-0.9968,-0.9962,-0.9939,-0.9965,-0.9942,-0.9941,-0.9948,-0.9896,-0.9889,-0.9852,-0.9912,-0.9911,-0.991,0,-1.0081,-1.0067,-1.0027,-1.0019,-1.0011,-0.9991,-0.9976,-0.9959,-0.9948,-0.9946,-0.9935,-0.9939,-0.9915,-0.9934,-0.9901,-0.9919,-0.991,-0.9906,-0.9905,-0.9903,-0.9925,-0.9895,-0.9839,-0.9835,-0.9902,-0.9903,-0.9903,0,-1.0042,-1.0013,-0.9986,-0.9979,-0.9968,-0.9955,-0.9949,-0.9939,-0.9929,-0.9914,-0.9908,-0.989,-0.9881,-0.9868,-0.9868,-0.9881,-0.9836,-0.9854,-0.9836,-0.9836,-0.9826,-0.9827,-0.977,-0.9817,-0.9817,-0.9818,-0.9818,0,-0.9992,-0.9967,-0.9969,-0.9953,-0.9926,-0.9929,-0.9903,-0.9898,-0.989,-0.9873,-0.988,-0.9864,-0.9864,-0.9848,-0.9848,-0.9823,-0.9818,-0.9817,-0.9818,-0.9817,-0.9818,-0.9812,-0.9816,-0.9816,-0.9816,-0.9817,-0.9817,0,-0.9944,-0.9944,-0.9916,-0.9908,-0.9906,-0.9887,-0.9881,-0.9865,-0.9864,-0.9843,-0.9838,-0.9834,-0.9816,-0.9815,-0.9793,-0.9793,-0.9763,-0.9766,-0.9768,-0.9769,-0.9752,-0.9754,-0.969,-0.9683,-0.9733,-0.9733,-0.9732,0,-0.9912,-0.9894,-0.9886,-0.9876,-0.9871,-0.9854,-0.9844,-0.9847,-0.9836,-0.9824,-0.981,-0.9793,-0.978,-0.975,-0.9746,-0.973,-0.9733,-0.9712,-0.9731,-0.9732,-0.9736,-0.9737,-0.9737,-0.9709,-0.9708,-0.9708,-0.9707,0,-0.9857,-0.9859,-0.9845,-0.9832,-0.982,-0.981,-0.98,-0.9791,-0.9793,-0.9781,-0.9763,-0.9753,-0.9733,-0.9716,-0.9701,-0.9696,-0.9702,-0.9702,-0.9697,-0.9697,-0.97,-0.9701,-0.976,-0.9703,-0.9703,-0.9704,-0.9704,-0.9704,-0.9818,-0.9803,-0.9797,-0.9782,-0.9775,-0.9766,-0.9753,-0.9751,-0.9737,-0.9721,-0.9723,-0.9705,-0.9696,-0.9677,-0.967,-0.9656,-0.9663,-0.9655,-0.9654,-0.9652,-0.9652,-0.9702,-0.9653,-0.9653,-0.9653,-0.9653,-0.9653,0,-0.9765,-0.9762,-0.9748,-0.9736,-0.9724,-0.9733,-0.9723,-0.9713,-0.9697,-0.9689,-0.9676,-0.9658,-0.9643,-0.9638,-0.9624,-0.9613,-0.9616,-0.9609,-0.9611,-0.961,-0.9645,-0.9652,-0.9608,-0.9608,-0.9608,-0.9608,-0.9608,-0.9608,-0.9736,-0.9714,-0.9715,-0.969,-0.9687,-0.967,-0.9664,-0.9657,-0.9651,-0.963,-0.9618,-0.9616,-0.961,-0.9595,-0.9582,-0.9581,-0.9576,-0.9569,-0.957,-0.9603,-0.9607,-0.9612,-0.9618,-0.9568,-0.9567,-0.9536,-0.9536,-0.9536]}]]